| time (UTC) | temp F | wind direction | speed MPH | gust MPH | rain 1hr in | rain 24hr in | rain mn in | humidity % | barometer mb |
| 20260901104825 | 79 | 129 | 0.0 | 0.0 | 0.00 | 0.00 | 0.00 | 93 | 1015.3 |
| 20260901104340 | 79 | 129 | 0.0 | 0.0 | 0.00 | 0.00 | 0.00 | 93 | 1015.2 |
| 20260901103850 | 79 | 129 | 0.0 | 0.0 | 0.00 | 0.00 | 0.00 | 93 | 1015.2 |
| 20260901103339 | 79 | 129 | 0.0 | 0.0 | 0.00 | 0.00 | 0.00 | 93 | 1015.2 |
| 20260901102830 | 79 | 129 | 0.0 | 0.0 | 0.00 | 0.00 | 0.00 | 93 | 1015.1 |
| 20260901102323 | 79 | 129 | 0.0 | 0.0 | 0.00 | 0.00 | 0.00 | 92 | 1015.1 |
| 20260901101837 | 79 | 129 | 0.0 | 0.0 | 0.00 | 0.00 | 0.00 | 92 | 1015.1 |
| 20260901101330 | 79 | 129 | 0.0 | 0.0 | 0.00 | 0.00 | 0.00 | 92 | 1015.2 |
| 20260901100844 | 79 | 129 | 0.0 | 0.0 | 0.00 | 0.00 | 0.00 | 92 | 1015.2 |
| 20260901100356 | 79 | 129 | 0.0 | 0.0 | 0.00 | 0.00 | 0.00 | 92 | 1015.2 |
| 20260901095904 | 79 | 129 | 0.0 | 0.0 | 0.00 | 0.00 | 0.00 | 92 | 1015.2 |
| 20260901095359 | 79 | 129 | 0.0 | 0.0 | 0.00 | 0.00 | 0.00 | 92 | 1015.2 |
| 20260901094832 | 79 | 129 | 0.0 | 0.0 | 0.00 | 0.00 | 0.00 | 91 | 1015.2 |
| 20260901094345 | 79 | 129 | 0.0 | 0.0 | 0.00 | 0.00 | 0.00 | 91 | 1015.3 |
| 20260901093837 | 79 | 129 | 0.0 | 0.0 | 0.00 | 0.00 | 0.00 | 91 | 1015.3 |
| 20260901093350 | 79 | 129 | 0.0 | 0.0 | 0.00 | 0.00 | 0.00 | 91 | 1015.3 |
| 20260901092841 | 80 | 129 | 0.0 | 0.0 | 0.00 | 0.00 | 0.00 | 91 | 1015.2 |
| 20260901092332 | 80 | 129 | 0.0 | 0.0 | 0.00 | 0.00 | 0.00 | 90 | 1015.2 |
| 20260901091827 | 80 | 129 | 0.0 | 0.0 | 0.00 | 0.00 | 0.00 | 90 | 1015.2 |
| 20260901091323 | 80 | 129 | 0.0 | 0.0 | 0.00 | 0.00 | 0.00 | 90 | 1015.3 |
| 20260901090900 | 80 | 129 | 0.0 | 0.0 | 0.00 | 0.00 | 0.00 | 90 | 1015.3 |
| 20260901090351 | 80 | 129 | 0.0 | 0.0 | 0.00 | 0.00 | 0.00 | 90 | 1015.3 |
| 20260901085842 | 80 | 129 | 0.0 | 0.0 | 0.00 | 0.00 | 0.00 | 90 | 1015.2 |
| 20260901085334 | 80 | 129 | 0.0 | 0.0 | 0.00 | 0.00 | 0.00 | 90 | 1015.2 |
| 20260901084846 | 80 | 129 | 0.0 | 1.0 | 0.00 | 0.00 | 0.00 | 90 | 1015.2 |
| 20260901084339 | 80 | 129 | 0.0 | 2.0 | 0.00 | 0.00 | 0.00 | 90 | 1015.3 |
| 20260901083832 | 80 | 129 | 0.0 | 2.0 | 0.00 | 0.00 | 0.00 | 89 | 1015.3 |
| 20260901083344 | 80 | 129 | 0.0 | 2.0 | 0.00 | 0.00 | 0.00 | 89 | 1015.3 |
| 20260901082855 | 80 | 129 | 1.0 | 2.0 | 0.00 | 0.00 | 0.00 | 89 | 1015.4 |
| 20260901082326 | 80 | 129 | 0.0 | 0.0 | 0.00 | 0.00 | 0.00 | 89 | 1015.4 |
| 20260901081838 | 80 | 129 | 0.0 | 0.0 | 0.00 | 0.00 | 0.00 | 89 | 1015.4 |
| 20260901081330 | 80 | 129 | 0.0 | 0.0 | 0.00 | 0.00 | 0.00 | 89 | 1015.4 |
| 20260901080822 | 80 | 129 | 0.0 | 0.0 | 0.00 | 0.00 | 0.00 | 89 | 1015.4 |
| 20260901080340 | 80 | 129 | 0.0 | 0.0 | 0.00 | 0.00 | 0.00 | 89 | 1015.4 |
| 20260901075830 | 80 | 129 | 0.0 | 0.0 | 0.00 | 0.00 | 0.00 | 89 | 1015.5 |
| 20260901075322 | 80 | 129 | 0.0 | 0.0 | 0.00 | 0.00 | 0.00 | 88 | 1015.5 |
| 20260901074836 | 80 | 129 | 0.0 | 0.0 | 0.00 | 0.00 | 0.00 | 88 | 1015.5 |
| 20260901074349 | 80 | 129 | 0.0 | 0.0 | 0.00 | 0.00 | 0.00 | 88 | 1015.4 |
| 20260901073840 | 80 | 129 | 0.0 | 0.0 | 0.00 | 0.00 | 0.00 | 88 | 1015.4 |
| 20260901073333 | 80 | 129 | 0.0 | 0.0 | 0.00 | 0.00 | 0.00 | 88 | 1015.4 |
| 20260901072826 | 80 | 129 | 0.0 | 0.0 | 0.00 | 0.00 | 0.00 | 88 | 1015.5 |
| 20260901072342 | 80 | 129 | 0.0 | 0.0 | 0.00 | 0.00 | 0.00 | 88 | 1015.5 |
| 20260901071855 | 80 | 129 | 0.0 | 0.0 | 0.00 | 0.00 | 0.00 | 87 | 1015.5 |
| 20260901071327 | 80 | 129 | 0.0 | 0.0 | 0.00 | 0.00 | 0.00 | 87 | 1015.6 |
| 20260901070838 | 81 | 129 | 0.0 | 0.0 | 0.00 | 0.00 | 0.00 | 87 | 1015.6 |
| 20260901070350 | 81 | 129 | 0.0 | 0.0 | 0.00 | 0.00 | 0.00 | 86 | 1015.6 |
| 20260901065838 | 81 | 129 | 0.0 | 0.0 | 0.00 | 0.00 | 0.00 | 86 | 1015.5 |
| 20260901065331 | 81 | 129 | 0.0 | 0.0 | 0.00 | 0.00 | 0.00 | 86 | 1015.5 |
| 20260901064824 | 81 | 129 | 0.0 | 0.0 | 0.00 | 0.00 | 0.00 | 86 | 1015.5 |
| 20260901064337 | 81 | 129 | 0.0 | 0.0 | 0.00 | 0.00 | 0.00 | 86 | 1015.6 |
| 20260901063848 | 81 | 129 | 0.0 | 0.0 | 0.00 | 0.00 | 0.00 | 86 | 1015.6 |
| 20260901063338 | 81 | 129 | 0.0 | 0.0 | 0.00 | 0.00 | 0.00 | 85 | 1015.6 |
| 20260901062832 | 82 | 129 | 0.0 | 0.0 | 0.00 | 0.00 | 0.00 | 85 | 1015.7 |
| 20260901062348 | 82 | 129 | 0.0 | 0.0 | 0.00 | 0.00 | 0.00 | 85 | 1015.7 |
| 20260901061842 | 82 | 129 | 0.0 | 0.0 | 0.00 | 0.00 | 0.00 | 85 | 1015.7 |
| 20260901061334 | 82 | 129 | 0.0 | 0.0 | 0.00 | 0.00 | 0.00 | 85 | 1015.9 |
| 20260901060843 | 82 | 129 | 0.0 | 0.0 | 0.00 | 0.00 | 0.00 | 84 | 1015.9 |
| 20260901060332 | 82 | 129 | 0.0 | 0.0 | 0.00 | 0.00 | 0.00 | 84 | 1015.9 |
| 20260901055824 | 82 | 129 | 0.0 | 0.0 | 0.00 | 0.00 | 0.00 | 83 | 1015.7 |
| 20260901055337 | 83 | 129 | 0.0 | 0.0 | 0.00 | 0.00 | 0.00 | 83 | 1015.7 |
| 20260901054829 | 83 | 129 | 0.0 | 0.0 | 0.00 | 0.00 | 0.00 | 82 | 1015.7 |
| 20260901054329 | 83 | 129 | 0.0 | 0.0 | 0.00 | 0.00 | 0.00 | 82 | 1015.6 |
| 20260901053820 | 83 | 129 | 0.0 | 0.0 | 0.00 | 0.00 | 0.00 | 81 | 1015.6 |
| 20260901053340 | 83 | 129 | 0.0 | 0.0 | 0.00 | 0.00 | 0.00 | 81 | 1015.6 |
| 20260901052832 | 84 | 129 | 0.0 | 0.0 | 0.00 | 0.00 | 0.00 | 81 | 1015.4 |
| 20260901052325 | 84 | 129 | 0.0 | 0.0 | 0.00 | 0.00 | 0.00 | 80 | 1015.4 |
| 20260901051837 | 84 | 129 | 0.0 | 0.0 | 0.00 | 0.00 | 0.00 | 79 | 1015.4 |
| 20260901051330 | 85 | 129 | 0.0 | 0.0 | 0.00 | 0.00 | 0.00 | 78 | 1015.5 |
| 20260901050822 | 85 | 129 | 0.0 | 1.0 | 0.00 | 0.00 | 0.00 | 78 | 1015.5 |
| 20260901050338 | 85 | 129 | 0.0 | 1.0 | 0.00 | 0.00 | 0.00 | 77 | 1015.5 |
| 20260901045824 | 85 | 129 | 0.0 | 2.0 | 0.00 | 0.00 | 0.00 | 77 | 1015.4 |
| 20260901045337 | 85 | 129 | 0.0 | 3.0 | 0.00 | 0.00 | 0.00 | 77 | 1015.4 |
| 20260901044826 | 85 | 129 | 1.0 | 3.0 | 0.00 | 0.00 | 0.00 | 77 | 1015.4 |
| 20260901044339 | 85 | 129 | 0.0 | 0.0 | 0.00 | 0.00 | 0.00 | 76 | 1015.4 |
| 20260901043833 | 85 | 129 | 0.0 | 0.0 | 0.00 | 0.00 | 0.00 | 76 | 1015.4 |
| 20260901043326 | 86 | 129 | 0.0 | 2.0 | 0.00 | 0.00 | 0.00 | 76 | 1015.4 |
| 20260901042840 | 86 | 129 | 1.0 | 3.0 | 0.00 | 0.00 | 0.00 | 75 | 1015.4 |
| 20260901042332 | 86 | 129 | 1.0 | 3.0 | 0.00 | 0.00 | 0.00 | 75 | 1015.4 |
| 20260901041825 | 86 | 175 | 1.0 | 6.0 | 0.00 | 0.00 | 0.00 | 74 | 1015.4 |
| 20260901041337 | 86 | 178 | 2.0 | 6.0 | 0.00 | 0.00 | 0.00 | 74 | 1015.4 |
| 20260901040831 | 86 | 183 | 2.0 | 4.0 | 0.00 | 0.00 | 0.00 | 74 | 1015.4 |
| 20260901040324 | 86 | 172 | 2.0 | 5.0 | 0.00 | 0.00 | 0.00 | 74 | 1015.4 |
| 20260901035835 | 86 | 142 | 3.0 | 6.0 | 0.00 | 0.00 | 0.00 | 74 | 1015.3 |
| 20260901035330 | 86 | 127 | 4.0 | 6.0 | 0.00 | 0.00 | 0.00 | 74 | 1015.3 |
| 20260901034828 | 86 | 144 | 3.0 | 5.0 | 0.00 | 0.00 | 0.00 | 74 | 1015.3 |
| 20260901034341 | 86 | 152 | 2.0 | 4.0 | 0.00 | 0.00 | 0.00 | 73 | 1014.9 |
| 20260901033832 | 86 | 157 | 1.0 | 4.0 | 0.00 | 0.00 | 0.00 | 73 | 1014.9 |
| 20260901033325 | 86 | 170 | 2.0 | 4.0 | 0.00 | 0.00 | 0.00 | 73 | 1014.9 |
| 20260901032838 | 87 | 185 | 1.0 | 3.0 | 0.00 | 0.00 | 0.00 | 73 | 1014.9 |
| 20260901032334 | 87 | 185 | 2.0 | 4.0 | 0.00 | 0.00 | 0.00 | 72 | 1014.9 |
| 20260901031828 | 87 | 170 | 3.0 | 4.0 | 0.00 | 0.00 | 0.00 | 72 | 1014.9 |
| 20260901031323 | 87 | 142 | 3.0 | 4.0 | 0.00 | 0.00 | 0.00 | 72 | 1014.8 |
| 20260901030840 | 87 | 143 | 3.0 | 4.0 | 0.00 | 0.00 | 0.00 | 72 | 1014.8 |
| 20260901030331 | 87 | 135 | 3.0 | 4.0 | 0.00 | 0.00 | 0.00 | 72 | 1014.8 |
| 20260901025823 | 87 | 132 | 2.0 | 3.0 | 0.00 | 0.00 | 0.00 | 72 | 1014.5 |
| 20260901025335 | 87 | 126 | 2.0 | 3.0 | 0.00 | 0.00 | 0.00 | 71 | 1014.5 |
| 20260901024831 | 87 | 204 | 1.0 | 4.0 | 0.00 | 0.00 | 0.00 | 71 | 1014.5 |
| 20260901024327 | 87 | 134 | 2.0 | 4.0 | 0.00 | 0.00 | 0.00 | 71 | 1014.3 |
| 20260901023843 | 87 | 137 | 2.0 | 3.0 | 0.00 | 0.00 | 0.00 | 70 | 1014.3 |
| 20260901023355 | 88 | 187 | 0.0 | 3.0 | 0.00 | 0.00 | 0.00 | 70 | 1014.3 |
| 20260901022827 | 88 | 155 | 2.0 | 4.0 | 0.00 | 0.00 | 0.00 | 70 | 1014.3 |
| 20260901022322 | 88 | 157 | 3.0 | 5.0 | 0.00 | 0.00 | 0.00 | 70 | 1014.3 |
| 20260901021834 | 88 | 149 | 3.0 | 6.0 | 0.00 | 0.00 | 0.00 | 70 | 1014.3 |
| 20260901021329 | 88 | 144 | 3.0 | 7.0 | 0.00 | 0.00 | 0.00 | 70 | 1014.3 |
| 20260901020840 | 88 | 178 | 4.0 | 7.0 | 0.00 | 0.00 | 0.00 | 69 | 1014.3 |
| 20260901020333 | 88 | 194 | 2.0 | 5.0 | 0.00 | 0.00 | 0.00 | 69 | 1014.3 |
| 20260901015823 | 88 | 132 | 3.0 | 5.0 | 0.00 | 0.00 | 0.00 | 69 | 1013.9 |
| 20260901015337 | 88 | 123 | 1.0 | 4.0 | 0.00 | 0.00 | 0.00 | 69 | 1013.9 |
| 20260901014830 | 89 | 130 | 2.0 | 4.0 | 0.00 | 0.00 | 0.00 | 69 | 1013.9 |
| 20260901014341 | 89 | 137 | 3.0 | 5.0 | 0.00 | 0.00 | 0.00 | 68 | 1013.9 |
| 20260901013855 | 89 | 131 | 2.0 | 5.0 | 0.00 | 0.00 | 0.00 | 68 | 1013.9 |
| 20260901013343 | 89 | 134 | 4.0 | 5.0 | 0.00 | 0.00 | 0.00 | 68 | 1013.9 |
| 20260901012903 | 89 | 118 | 3.0 | 4.0 | 0.00 | 0.00 | 0.00 | 68 | 1013.9 |
| 20260901012334 | 89 | 112 | 3.0 | 5.0 | 0.00 | 0.00 | 0.00 | 67 | 1013.9 |
| 20260901011847 | 89 | 126 | 2.0 | 5.0 | 0.00 | 0.00 | 0.00 | 68 | 1013.9 |
| 20260901011320 | 89 | 131 | 3.0 | 5.0 | 0.00 | 0.00 | 0.00 | 67 | 1013.9 |
| 20260901010837 | 89 | 136 | 2.0 | 4.0 | 0.00 | 0.00 | 0.00 | 67 | 1013.9 |
| 20260901010327 | 89 | 123 | 2.0 | 4.0 | 0.00 | 0.00 | 0.00 | 67 | 1013.9 |
| 20260901005838 | 90 | 130 | 3.0 | 5.0 | 0.00 | 0.00 | 0.00 | 67 | 1013.9 |
| 20260901005336 | 90 | 127 | 2.0 | 5.0 | 0.00 | 0.00 | 0.00 | 66 | 1013.9 |
| 20260901004852 | 90 | 139 | 1.0 | 5.0 | 0.00 | 0.00 | 0.00 | 66 | 1013.9 |
| 20260901004324 | 90 | 146 | 3.0 | 6.0 | 0.00 | 0.00 | 0.00 | 66 | 1013.9 |
| 20260901003902 | 90 | 138 | 3.0 | 6.0 | 0.00 | 0.00 | 0.00 | 65 | 1013.9 |
| 20260901003334 | 90 | 122 | 1.0 | 9.0 | 0.00 | 0.00 | 0.00 | 65 | 1013.9 |
| 20260901002827 | 90 | 128 | 6.0 | 9.0 | 0.00 | 0.00 | 0.00 | 64 | 1014.0 |
| 20260901002322 | 90 | 139 | 4.0 | 7.0 | 0.00 | 0.00 | 0.00 | 64 | 1014.0 |
| 20260901001835 | 91 | 130 | 4.0 | 7.0 | 0.00 | 0.00 | 0.00 | 64 | 1014.0 |
| 20260901001328 | 91 | 132 | 4.0 | 6.0 | 0.00 | 0.00 | 0.00 | 64 | 1014.0 |
| 20260901000840 | 91 | 120 | 3.0 | 6.0 | 0.00 | 0.00 | 0.00 | 63 | 1014.0 |
| 20260901000336 | 91 | 134 | 4.0 | 7.0 | 0.00 | 0.00 | 0.00 | 63 | 1014.0 |
| 20260831235824 | 91 | 116 | 5.0 | 7.0 | 0.00 | 0.00 | 0.00 | 63 | 1014.1 |
| 20260831235332 | 91 | 118 | 2.0 | 6.0 | 0.00 | 0.00 | 0.00 | 63 | 1014.1 |
| 20260831234825 | 91 | 127 | 2.0 | 10.0 | 0.00 | 0.00 | 0.00 | 63 | 1014.1 |
| 20260831234338 | 91 | 144 | 5.0 | 10.0 | 0.00 | 0.00 | 0.00 | 62 | 1014.2 |
| 20260831233853 | 91 | 127 | 4.0 | 8.0 | 0.00 | 0.00 | 0.00 | 61 | 1014.2 |
| 20260831233323 | 92 | 132 | 2.0 | 5.0 | 0.00 | 0.00 | 0.00 | 62 | 1014.2 |
| 20260831232819 | 92 | 137 | 2.0 | 6.0 | 0.00 | 0.00 | 0.00 | 62 | 1014.2 |
| 20260831232334 | 92 | 137 | 3.0 | 9.0 | 0.00 | 0.00 | 0.00 | 61 | 1014.2 |
| 20260831231825 | 92 | 129 | 5.0 | 9.0 | 0.00 | 0.00 | 0.00 | 61 | 1014.2 |
| 20260831231337 | 92 | 105 | 2.0 | 7.0 | 0.00 | 0.00 | 0.00 | 61 | 1014.1 |
| 20260831230831 | 92 | 116 | 4.0 | 11.0 | 0.00 | 0.00 | 0.00 | 60 | 1014.1 |
| 20260831230325 | 92 | 127 | 8.0 | 11.0 | 0.00 | 0.00 | 0.00 | 60 | 1014.1 |
| 20260831225858 | 92 | 141 | 8.0 | 11.0 | 0.00 | 0.00 | 0.00 | 59 | 1014.1 |
| 20260831225329 | 91 | 118 | 6.0 | 11.0 | 0.00 | 0.00 | 0.00 | 59 | 1014.1 |
| 20260831224843 | 91 | 141 | 5.0 | 12.0 | 0.00 | 0.00 | 0.00 | 58 | 1014.1 |
| 20260831224353 | 91 | 127 | 7.0 | 12.0 | 0.00 | 0.00 | 0.00 | 58 | 1014.3 |
| 20260831223826 | 92 | 124 | 5.0 | 10.0 | 0.00 | 0.00 | 0.00 | 58 | 1014.3 |
| 20260831223322 | 92 | 130 | 5.0 | 11.0 | 0.00 | 0.00 | 0.00 | 58 | 1014.3 |
| 20260831222902 | 92 | 132 | 8.0 | 12.0 | 0.00 | 0.00 | 0.00 | 58 | 1014.3 |
| 20260831222333 | 92 | 127 | 6.0 | 12.0 | 0.00 | 0.00 | 0.00 | 58 | 1014.3 |
| 20260831221847 | 92 | 117 | 6.0 | 12.0 | 0.00 | 0.00 | 0.00 | 59 | 1014.3 |
| 20260831221356 | 93 | 140 | 6.0 | 11.0 | 0.00 | 0.00 | 0.00 | 58 | 1014.3 |
| 20260831220827 | 92 | 147 | 3.0 | 6.0 | 0.00 | 0.00 | 0.00 | 58 | 1014.3 |
| 20260831220339 | 92 | 149 | 4.0 | 11.0 | 0.00 | 0.00 | 0.00 | 59 | 1014.3 |
| 20260831215847 | 92 | 101 | 5.0 | 12.0 | 0.00 | 0.00 | 0.00 | 60 | 1014.4 |
| 20260831215330 | 91 | 126 | 7.0 | 12.0 | 0.00 | 0.00 | 0.00 | 60 | 1014.4 |
| 20260831214826 | 91 | 126 | 8.0 | 12.0 | 0.00 | 0.00 | 0.00 | 61 | 1014.4 |
| 20260831214322 | 91 | 142 | 9.0 | 12.0 | 0.00 | 0.00 | 0.00 | 61 | 1014.6 |
| 20260831213840 | 91 | 129 | 7.0 | 12.0 | 0.00 | 0.00 | 0.00 | 61 | 1014.6 |
| 20260831213332 | 91 | 124 | 8.0 | 13.0 | 0.00 | 0.00 | 0.00 | 61 | 1014.6 |
| 20260831212823 | 92 | 135 | 6.0 | 13.0 | 0.00 | 0.00 | 0.00 | 62 | 1014.6 |
| 20260831212338 | 92 | 146 | 7.0 | 11.0 | 0.00 | 0.00 | 0.00 | 62 | 1014.6 |
| 20260831211829 | 92 | 134 | 5.0 | 12.0 | 0.00 | 0.00 | 0.00 | 63 | 1014.6 |
| 20260831211325 | 92 | 135 | 8.0 | 12.0 | 0.00 | 0.00 | 0.00 | 63 | 1014.8 |
| 20260831210907 | 92 | 138 | 6.0 | 11.0 | 0.00 | 0.00 | 0.00 | 62 | 1014.8 |
| 20260831210359 | 93 | 149 | 7.0 | 11.0 | 0.00 | 0.00 | 0.00 | 63 | 1014.8 |
| 20260831205847 | 92 | 131 | 6.0 | 11.0 | 0.00 | 0.00 | 0.00 | 63 | 1014.8 |
| 20260831205339 | 93 | 135 | 6.0 | 13.0 | 0.00 | 0.00 | 0.00 | 63 | 1014.8 |
| 20260831204831 | 92 | 137 | 6.0 | 13.0 | 0.00 | 0.00 | 0.00 | 64 | 1014.8 |
| 20260831204323 | 92 | 132 | 5.0 | 11.0 | 0.00 | 0.00 | 0.00 | 64 | 1015.1 |
| 20260831203835 | 92 | 126 | 6.0 | 14.0 | 0.00 | 0.00 | 0.00 | 64 | 1015.1 |
| 20260831203330 | 93 | 130 | 7.0 | 14.0 | 0.00 | 0.00 | 0.00 | 63 | 1015.1 |
| 20260831202825 | 94 | 111 | 6.0 | 10.0 | 0.00 | 0.00 | 0.00 | 61 | 1015.2 |
| 20260831202333 | 94 | 134 | 4.0 | 9.0 | 0.00 | 0.00 | 0.00 | 58 | 1015.2 |
| 20260831201826 | 94 | 106 | 2.0 | 10.0 | 0.00 | 0.00 | 0.00 | 57 | 1015.2 |
| 20260831201340 | 94 | 146 | 4.0 | 10.0 | 0.00 | 0.00 | 0.00 | 57 | 1015.3 |
| 20260831200834 | 95 | 130 | 5.0 | 10.0 | 0.00 | 0.00 | 0.00 | 56 | 1015.3 |
| 20260831200328 | 95 | 151 | 4.0 | 7.0 | 0.00 | 0.00 | 0.00 | 56 | 1015.3 |
| 20260831195905 | 94 | 284 | 2.0 | 7.0 | 0.00 | 0.00 | 0.00 | 56 | 1015.4 |
| 20260831195356 | 94 | 142 | 5.0 | 6.0 | 0.00 | 0.00 | 0.00 | 57 | 1015.4 |
| 20260831194829 | 94 | 112 | 3.0 | 8.0 | 0.00 | 0.00 | 0.00 | 58 | 1015.4 |
| 20260831194324 | 94 | 133 | 1.0 | 9.0 | 0.00 | 0.00 | 0.00 | 58 | 1015.7 |
| 20260831193837 | 94 | 154 | 4.0 | 9.0 | 0.00 | 0.00 | 0.00 | 57 | 1015.7 |
| 20260831193329 | 95 | 49 | 2.0 | 8.0 | 0.00 | 0.00 | 0.00 | 57 | 1015.7 |
| 20260831192841 | 95 | 131 | 4.0 | 8.0 | 0.00 | 0.00 | 0.00 | 58 | 1015.9 |
| 20260831192335 | 95 | 109 | 1.0 | 5.0 | 0.00 | 0.00 | 0.00 | 58 | 1015.9 |
| 20260831191825 | 95 | 11 | 2.0 | 4.0 | 0.00 | 0.00 | 0.00 | 57 | 1015.9 |
| 20260831191338 | 94 | 35 | 1.0 | 4.0 | 0.00 | 0.00 | 0.00 | 59 | 1016.0 |
| 20260831190830 | 93 | 345 | 0.0 | 4.0 | 0.00 | 0.00 | 0.00 | 59 | 1016.0 |
| 20260831190325 | 93 | 5 | 1.0 | 4.0 | 0.00 | 0.00 | 0.00 | 59 | 1016.0 |
| 20260831185834 | 93 | 328 | 1.0 | 6.0 | 0.00 | 0.00 | 0.00 | 60 | 1016.3 |
| 20260831185329 | 93 | 21 | 3.0 | 6.0 | 0.00 | 0.00 | 0.00 | 60 | 1016.3 |
| 20260831184823 | 93 | 324 | 0.0 | 3.0 | 0.00 | 0.00 | 0.00 | 61 | 1016.3 |
| 20260831184335 | 93 | 114 | 1.0 | 3.0 | 0.00 | 0.00 | 0.00 | 61 | 1016.4 |
| 20260831183828 | 93 | 57 | 2.0 | 3.0 | 0.00 | 0.00 | 0.00 | 61 | 1016.4 |
| 20260831183322 | 93 | 90 | 1.0 | 3.0 | 0.00 | 0.00 | 0.00 | 61 | 1016.4 |
| 20260831182834 | 93 | 323 | 0.0 | 4.0 | 0.00 | 0.00 | 0.00 | 61 | 1016.4 |
| 20260831182326 | 93 | 321 | 2.0 | 4.0 | 0.00 | 0.00 | 0.00 | 60 | 1016.4 |
| 20260831181840 | 93 | 9 | 1.0 | 3.0 | 0.00 | 0.00 | 0.00 | 62 | 1016.4 |
| 20260831181332 | 93 | 9 | 2.0 | 3.0 | 0.00 | 0.00 | 0.00 | 62 | 1016.8 |
| 20260831180825 | 92 | 11 | 1.0 | 3.0 | 0.00 | 0.00 | 0.00 | 62 | 1016.8 |
| 20260831180338 | 93 | 344 | 1.0 | 5.0 | 0.00 | 0.00 | 0.00 | 62 | 1016.8 |
| 20260831175827 | 93 | 4 | 1.0 | 5.0 | 0.00 | 0.00 | 0.00 | 60 | 1016.9 |
| 20260831175319 | 94 | 89 | 2.0 | 4.0 | 0.00 | 0.00 | 0.00 | 60 | 1017.0 |
| 20260831174829 | 93 | 65 | 2.0 | 5.0 | 0.00 | 0.00 | 0.00 | 61 | 1016.9 |
| 20260831174325 | 93 | 303 | 2.0 | 6.0 | 0.00 | 0.00 | 0.00 | 61 | 1017.0 |
| 20260831173837 | 93 | 101 | 2.0 | 7.0 | 0.00 | 0.00 | 0.00 | 62 | 1017.0 |
| 20260831173329 | 93 | 119 | 3.0 | 7.0 | 0.00 | 0.00 | 0.00 | 63 | 1017.0 |
| 20260831172825 | 92 | 56 | 2.0 | 5.0 | 0.00 | 0.00 | 0.00 | 64 | 1017.2 |
| 20260831172336 | 92 | 168 | 1.0 | 7.0 | 0.00 | 0.00 | 0.00 | 65 | 1017.2 |
| 20260831171829 | 92 | 13 | 1.0 | 7.0 | 0.00 | 0.00 | 0.00 | 66 | 1017.2 |
| 20260831171323 | 92 | 5 | 2.0 | 4.0 | 0.00 | 0.00 | 0.00 | 65 | 1017.4 |
| 20260831170837 | 92 | 347 | 1.0 | 6.0 | 0.00 | 0.00 | 0.00 | 66 | 1017.4 |
| 20260831170329 | 91 | 203 | 2.0 | 7.0 | 0.00 | 0.00 | 0.00 | 66 | 1017.3 |
| 20260831165840 | 91 | 100 | 3.0 | 7.0 | 0.00 | 0.00 | 0.00 | 67 | 1017.4 |
| 20260831165333 | 91 | 8 | 0.0 | 5.0 | 0.00 | 0.00 | 0.00 | 68 | 1017.4 |
| 20260831164846 | 90 | 75 | 1.0 | 5.0 | 0.00 | 0.00 | 0.00 | 69 | 1017.4 |
| 20260831164400 | 90 | 108 | 2.0 | 7.0 | 0.00 | 0.00 | 0.00 | 69 | 1017.4 |
| 20260831163833 | 90 | 80 | 2.0 | 7.0 | 0.00 | 0.00 | 0.00 | 70 | 1017.4 |
| 20260831163327 | 90 | 359 | 1.0 | 3.0 | 0.00 | 0.00 | 0.00 | 69 | 1017.4 |
| 20260831162821 | 90 | 305 | 2.0 | 4.0 | 0.00 | 0.00 | 0.00 | 69 | 1017.5 |
| 20260831162337 | 90 | 311 | 2.0 | 4.0 | 0.00 | 0.00 | 0.00 | 69 | 1017.5 |
| 20260831161828 | 90 | 32 | 1.0 | 5.0 | 0.00 | 0.00 | 0.00 | 70 | 1017.5 |
| 20260831161341 | 89 | 184 | 1.0 | 5.0 | 0.00 | 0.00 | 0.00 | 69 | 1017.5 |
| 20260831160835 | 89 | 72 | 2.0 | 3.0 | 0.00 | 0.00 | 0.00 | 70 | 1017.5 |
| 20260831160325 | 89 | 127 | 1.0 | 2.0 | 0.00 | 0.00 | 0.00 | 69 | 1017.5 |
| 20260831155837 | 89 | 279 | 0.0 | 4.0 | 0.00 | 0.00 | 0.00 | 68 | 1017.5 |
| 20260831155327 | 89 | 79 | 1.0 | 7.0 | 0.00 | 0.00 | 0.00 | 69 | 1017.5 |
| 20260831154846 | 88 | 113 | 3.0 | 7.0 | 0.00 | 0.00 | 0.00 | 71 | 1017.5 |
| 20260831154358 | 88 | 120 | 2.0 | 5.0 | 0.00 | 0.00 | 0.00 | 73 | 1017.4 |
| 20260831153828 | 87 | 312 | 2.0 | 4.0 | 0.00 | 0.00 | 0.00 | 74 | 1017.4 |
| 20260831153323 | 87 | 288 | 2.0 | 3.0 | 0.00 | 0.00 | 0.00 | 74 | 1017.4 |
| 20260831152859 | 87 | 89 | 1.0 | 3.0 | 0.00 | 0.00 | 0.00 | 75 | 1017.4 |
| 20260831152350 | 87 | 357 | 2.0 | 3.0 | 0.00 | 0.00 | 0.00 | 74 | 1017.4 |
| 20260831151840 | 86 | 158 | 1.0 | 5.0 | 0.00 | 0.00 | 0.00 | 75 | 1017.4 |
| 20260831151335 | 86 | 70 | 3.0 | 5.0 | 0.00 | 0.00 | 0.00 | 76 | 1017.3 |
| 20260831150825 | 86 | 259 | 0.0 | 4.0 | 0.00 | 0.00 | 0.00 | 78 | 1017.3 |
| 20260831150337 | 85 | 255 | 1.0 | 4.0 | 0.00 | 0.00 | 0.00 | 78 | 1017.3 |
| 20260831145826 | 85 | 54 | 0.0 | 3.0 | 0.00 | 0.00 | 0.00 | 79 | 1017.1 |
| 20260831145340 | 85 | 54 | 0.0 | 3.0 | 0.00 | 0.00 | 0.00 | 80 | 1017.1 |
| 20260831144835 | 85 | 337 | 3.0 | 3.0 | 0.00 | 0.00 | 0.00 | 81 | 1017.1 |
| 20260831144347 | 84 | 301 | 2.0 | 3.0 | 0.00 | 0.00 | 0.00 | 81 | 1017.1 |
| 20260831143907 | 84 | 298 | 1.0 | 2.0 | 0.00 | 0.00 | 0.00 | 84 | 1017.1 |
| 20260831143358 | 84 | 71 | 1.0 | 2.0 | 0.00 | 0.00 | 0.00 | 85 | 1017.1 |
| 20260831142849 | 84 | 307 | 0.0 | 2.0 | 0.00 | 0.00 | 0.00 | 86 | 1017.0 |
| 20260831142343 | 83 | 307 | 0.0 | 2.0 | 0.00 | 0.00 | 0.00 | 87 | 1017.0 |
| 20260831141854 | 83 | 331 | 0.0 | 1.0 | 0.00 | 0.00 | 0.00 | 88 | 1017.0 |
| 20260831141344 | 82 | 331 | 0.0 | 3.0 | 0.00 | 0.00 | 0.00 | 88 | 1016.9 |
| 20260831140838 | 82 | 331 | 0.0 | 3.0 | 0.00 | 0.00 | 0.00 | 89 | 1016.9 |
| 20260831140328 | 82 | 95 | 0.0 | 0.0 | 0.00 | 0.00 | 0.00 | 90 | 1016.9 |
| 20260831135842 | 81 | 95 | 0.0 | 0.0 | 0.00 | 0.00 | 0.00 | 90 | 1016.9 |
| 20260831135355 | 81 | 95 | 0.0 | 0.0 | 0.00 | 0.00 | 0.00 | 91 | 1016.9 |
| 20260831134826 | 81 | 95 | 0.0 | 0.0 | 0.00 | 0.00 | 0.00 | 92 | 1016.9 |
| 20260831134340 | 80 | 95 | 0.0 | 0.0 | 0.00 | 0.00 | 0.00 | 92 | 1016.8 |
| 20260831133834 | 80 | 167 | 0.0 | 0.0 | 0.00 | 0.00 | 0.00 | 93 | 1016.8 |
| 20260831133329 | 80 | 167 | 0.0 | 0.0 | 0.00 | 0.00 | 0.00 | 93 | 1016.8 |
| 20260831132823 | 80 | 167 | 0.0 | 0.0 | 0.00 | 0.00 | 0.00 | 94 | 1016.5 |
| 20260831132402 | 79 | 167 | 0.0 | 0.0 | 0.00 | 0.00 | 0.00 | 94 | 1016.5 |
| 20260831131833 | 79 | 167 | 0.0 | 0.0 | 0.00 | 0.00 | 0.00 | 95 | 1016.5 |
| 20260831131345 | 79 | 167 | 0.0 | 0.0 | 0.00 | 0.00 | 0.00 | 95 | 1016.5 |
| 20260831130902 | 78 | 167 | 0.0 | 1.0 | 0.00 | 0.00 | 0.00 | 95 | 1016.5 |
| 20260831130333 | 78 | 167 | 0.0 | 1.0 | 0.00 | 0.00 | 0.00 | 96 | 1016.5 |
| 20260831125822 | 78 | 167 | 0.0 | 0.0 | 0.00 | 0.00 | 0.00 | 96 | 1016.4 |
| 20260831125334 | 77 | 167 | 0.0 | 0.0 | 0.00 | 0.00 | 0.00 | 96 | 1016.4 |
| 20260831124828 | 77 | 167 | 0.0 | 0.0 | 0.00 | 0.00 | 0.00 | 95 | 1016.4 |
| 20260831124338 | 77 | 167 | 0.0 | 0.0 | 0.00 | 0.00 | 0.00 | 95 | 1016.3 |
| 20260831123828 | 77 | 167 | 0.0 | 0.0 | 0.00 | 0.00 | 0.00 | 95 | 1016.3 |
| 20260831123340 | 77 | 167 | 0.0 | 0.0 | 0.00 | 0.00 | 0.00 | 95 | 1016.3 |
| 20260831122832 | 77 | 167 | 0.0 | 0.0 | 0.00 | 0.00 | 0.00 | 95 | 1016.0 |
| 20260831122326 | 77 | 167 | 0.0 | 0.0 | 0.00 | 0.00 | 0.00 | 95 | 1016.0 |
| 20260831121836 | 77 | 167 | 0.0 | 0.0 | 0.00 | 0.00 | 0.00 | 95 | 1016.0 |
| 20260831121331 | 77 | 167 | 0.0 | 0.0 | 0.00 | 0.00 | 0.00 | 95 | 1015.7 |
| 20260831120843 | 77 | 167 | 0.0 | 0.0 | 0.00 | 0.00 | 0.00 | 95 | 1015.7 |
| 20260831120402 | 77 | 167 | 0.0 | 0.0 | 0.00 | 0.00 | 0.00 | 94 | 1015.7 |
| 20260831115834 | 77 | 167 | 0.0 | 0.0 | 0.00 | 0.00 | 0.00 | 94 | 1015.5 |
| 20260831115346 | 77 | 167 | 0.0 | 0.0 | 0.00 | 0.00 | 0.00 | 94 | 1015.5 |
| 20260831114838 | 77 | 167 | 0.0 | 0.0 | 0.00 | 0.00 | 0.00 | 94 | 1015.5 |
| 20260831114332 | 77 | 167 | 0.0 | 0.0 | 0.00 | 0.00 | 0.00 | 94 | 1015.5 |
| 20260831113825 | 77 | 167 | 0.0 | 0.0 | 0.00 | 0.00 | 0.00 | 94 | 1015.5 |
| 20260831113341 | 77 | 167 | 0.0 | 0.0 | 0.00 | 0.00 | 0.00 | 94 | 1015.5 |
| 20260831112833 | 77 | 167 | 0.0 | 0.0 | 0.00 | 0.00 | 0.00 | 94 | 1015.4 |
| 20260831112326 | 77 | 167 | 0.0 | 0.0 | 0.00 | 0.00 | 0.00 | 94 | 1015.4 |
| 20260831111838 | 77 | 167 | 0.0 | 0.0 | 0.00 | 0.00 | 0.00 | 93 | 1015.4 |
| 20260831111331 | 77 | 167 | 0.0 | 0.0 | 0.00 | 0.00 | 0.00 | 93 | 1015.4 |
| 20260831110824 | 77 | 167 | 0.0 | 0.0 | 0.00 | 0.00 | 0.00 | 93 | 1015.4 |
| 20260831110337 | 77 | 167 | 0.0 | 0.0 | 0.00 | 0.00 | 0.00 | 93 | 1015.4 |
| 20260831105826 | 78 | 167 | 0.0 | 0.0 | 0.00 | 0.00 | 0.00 | 93 | 1015.4 |
| 20260831105323 | 78 | 167 | 0.0 | 0.0 | 0.00 | 0.00 | 0.00 | 93 | 1015.4 |